Regional Weather Roundup
Issued by NWS

Home | Current Version | Previous Version | Graphics & Text | Print | Product List | Glossary On
Versions: 1 2 3 4 5 6 7 8 9 10 11 12 13 14 15 16 17 18 19 20 21 22 23 24 25 26 27 28 29 30 31 32 33 34 35 36 37 38 39 40 41 42 43 44 45 46 47 48 49 50
613
ASUS43 KMKX 151900
RWRWI

WISCONSIN REGIONAL WEATHER ROUNDUP
NATIONAL WEATHER SERVICE MILWAUKEE/SULLIVAN WI
100 PM CST FRI DEC 15 2017

NOTE: "FAIR" INDICATES FEW OR NO CLOUDS BELOW 12,000 FEET WITH NO
SIGNIFICANT WEATHER AND/OR OBSTRUCTIONS TO VISIBILITY.

WIZ001-002-006>008-014>016-023>028-152000-
NORTHWEST WISCONSIN

CITY           SKY/WX    TMP DP  RH WIND       PRES   REMARKS
SUPERIOR ARPT  CLOUDY    15   6  67 W7        29.85F WCI   5
ASHLAND        CLOUDY    15   6  67 W6        29.83F WCI   6
HAYWARD        PTSUNNY   15   6  67 CALM      29.80F
SIREN          PTSUNNY   18   9  65 CALM      29.83F
CUMBERLAND     MOSUNNY   14   9  79 CALM      29.82F
RICE LAKE      MOSUNNY   16   9  72 CALM      29.85F
CHETEK         CLOUDY    18   9  68 CALM      29.84F
LADYSMITH      SUNNY     17   7  64 W6        29.82F WCI   9
EAU CLAIRE     NOT AVBL
MENOMONIE      CLOUDY    24  15  69 W3        29.84F
NEW RICHMOND   CLOUDY    20  12  71 CALM      29.84F
OSCEOLA        PTSUNNY   20  12  71 CALM      29.87F
$$

WIZ003>005-009-010-017-018-152000-
NORTH CENTRAL WISCONSIN

CITY           SKY/WX    TMP DP  RH WIND       PRES   REMARKS
MANITOWISH WTR LGT SNOW  12   4  70 W8        29.75F WCI   1
ARBOR VITAE    LGT SNOW  17  11  78 NW5       29.74F WCI   9
WOODRUFF       LGT SNOW  17  11  78 NW5       29.74F WCI   9
RHINELANDER    CLOUDY    14   6  70 NW9       29.75F WCI   2
EAGLE RIVER    CLOUDY    14   5  68 W14G20    29.73F WCI  -1
LAND O LAKES   PTSUNNY   19   9  65 W9        29.73F WCI   7
PHILLIPS       FLURRIES  14   6  72 SW6       29.77F WCI   5
TOMAHAWK       CLOUDY    14   7  73 W9        29.79S WCI   2
MEDFORD        CLOUDY    14   7  72 W10       29.79F WCI   2
MERRILL        FLURRIES  16   8  70 W8        29.80F WCI   5
$$

WIZ029-030-035-036-043>047-152000-
CENTRAL WISCONSIN

CITY           SKY/WX    TMP DP  RH WIND       PRES   REMARKS
WAUSAU         CLOUDY    16   8  71 W10       29.79F WCI   4
MOSINEE        PTSUNNY   18   9  68 W13       29.82F WCI   4
MARSHFIELD     PTSUNNY   18  10  71 W10       29.79F WCI   6
STEVENS POINT  CLOUDY    18   8  64 W15       29.82F WCI   4
WAUPACA        PTSUNNY   24  11  55 W10       29.84S WCI  14
WAUTOMA        PTSUNNY   24  13  62 W14       29.84F WCI  12
WISC RAPIDS    CLOUDY    21  10  62 NW10      29.84F WCI  10
CAMP DOUGLAS   NOT AVBL
$$

WIZ011>013-019>022-031-037>040-048>050-152000-
NORTHEAST WISCONSIN

CITY           SKY/WX    TMP DP  RH WIND       PRES   REMARKS
ANTIGO         FLURRIES  14   7  72 NW12      29.77F WCI   1
SHAWANO        CLOUDY    21  10  61 NW10      29.82S WCI  10
OCONTO         SUNNY     20   8  59 W15       29.81S WCI   6
STURGEON BAY   FLURRIES  21  11  65 W16       29.78F WCI   7
GREEN BAY      PTSUNNY   20   8  60 W15       29.82F WCI   6
MANITOWOC      CLOUDY    23  12  62 NW15      29.82F WCI  10
APPLETON       PTSUNNY   19   9  63 W18       29.81S WCI   4
CLINTONVILLE   FLURRIES  19   9  63 W12       29.83S WCI   7
OSHKOSH        PTSUNNY   23  11  60 W13G20    29.82F WCI  11
$$

WIZ032>034-041-042-053>061-152000-
SOUTHWEST WISCONSIN

CITY           SKY/WX    TMP DP  RH WIND       PRES   REMARKS
LA CROSSE      CLOUDY    31  22  69 CALM      29.84F
SPARTA         CLOUDY    29  21  72 W6        29.85F WCI  23
VIROQUA        CLOUDY    28  26  91 CALM      29.83F
BOSCOBEL       CLOUDY    31  24  75 SW10      29.88F WCI  22
PRAIRIE DU CHI CLOUDY    32  24  74 W5        29.88F WCI  27
PLATTEVILLE    CLOUDY    29  26  88 W10G18    29.88F WCI  20
$$

WIZ056-057-062-063-064-067-068-152000-
SOUTH CENTRAL WISCONSIN

CITY           SKY/WX    TMP DP  RH WIND       PRES   REMARKS
REEDSBURG      CLOUDY    29  19  65 W12       29.85F WCI  20
BARABOO/DELLS  CLOUDY    28  18  66 W12G18    29.84F WCI  17
LONE ROCK      NOT AVBL
MINERAL POINT  FLURRIES  30  28  93 W10       29.85F WCI  21
MADISON        PTSUNNY   30  18  60 W10G17    29.85F WCI  21
MIDDLETON      CLOUDY    31  20  63 W12       29.85F WCI  22
WATERTOWN      CLOUDY    27  18  67 W8        29.85F WCI  19
MONROE         CLOUDY    30  23  74 SW15      29.86F WCI  19
JANESVILLE     CLOUDY    32  19  59 W14G20    29.87F WCI  22
$$

WIZ051-052-058>065-066-070>072-152000-
SOUTHEAST WISCONSIN

CITY           SKY/WX    TMP DP  RH WIND       PRES   REMARKS
MILWAUKEE      PTSUNNY   29  15  56 W9        29.85F WCI  20
WAUKESHA       CLOUDY    25  16  68 NW14      29.85F WCI  13
MILWAUKEE/TIMM CLOUDY    27  12  54 W16       29.86F WCI  14
RACINE         PTSUNNY   29  15  56 W12G23    29.87F WCI  19
BURLINGTON     PTSUNNY   28  18  65 W13G20    29.86F WCI  18
KENOSHA        CLOUDY    31  16  54 W20G28    29.85F WCI  19
FOND DU LAC    PTSUNNY   24  10  55 W14       29.83F WCI  12
SHEBOYGAN      CLOUDY    23  12  62 NW15      29.82F WCI  10
WEST BEND      CLOUDY    23  14  68 W16G23    29.83F WCI  10
JUNEAU         CLOUDY    23  15  70 W5        29.86F WCI  17
$$

LSZ147-162-152000-
LAKE SUPERIOR

STATION/POSITION TIME  TEMP    WIND        PRES    WAVE
                       AIR SEA DIR/SP/G            HT/PER
                 (UTC) (F)     (DEG/KT/KT) (MB)    (FT/S)
DEVILS ISLAND    1800   15     290/ 11/ 14 1011.9F
SAXON HARBOR     1830   17                 1010.2F
$$

LMZ867-665-643>646-152000-
LAKE MICHIGAN

STATION/POSITION TIME  TEMP    WIND        PRES    WAVE
                       AIR SEA DIR/SP/G            HT/PER
                 (UTC) (F)     (DEG/KT/KT) (MB)    (FT/S)
NORTHPORT PIER   1840   23     290/ 10/ 16 1007.5S
KEWAUNEE LAKESHO 1830   20     290/  9/ 16 1008.8F
SHEBOYGAN LAKESH 1800   23     280/ 12/ 18 1011.3F
PORT WASHINGTON  1840   26     290/ 12/ 18 1011.9S
MILWAUKEE LAKESH 1830   27     290/ 15/ 20   N/A
KENOSHA   LAKESH 1800   29     290/ 13/ 20 1011.9
$$

TC  - TEMPERATURE IN CELSIUS
VSB - VISIBILITY IN STATUTE MILES
WCI - WIND CHILL INDEX
HX  - HEAT INDEX





USA.gov is the U.S. government's official web portal to all federal, state and local government web resources and services.